Погода в Конаково

Россия / Тверская область     56°42′47″N   36°46′45″E
темп.,
°C
ветер,
м/с
пор.,
м/с
влажн.,
%
обл.,
%
осадки,
мм/ч
давл.,
гПа
погр.,
м
8 мая, сб
сб800:00+5ююв3883100 0.0 1011165
03:00+6ююв31381100 0.0 1010324
06:00+6юв31193100 0.8 1009765
09:00+8ююв61292100 1.3 1008875
12:00+8юв51295100 3.1 1006977
15:00+8вюв2798100 8.3 1004448
18:00+7ссз2498100 4.1 1002130
21:00+7ссз4997100 5.9 1002745
9 мая, вс
вс900:00+6сз61295100 1.2 10021158
03:00+3сз61497100 4.6 1005763
06:00+3сз61292100 1.1 1008887
09:00+4сз51086100 1.3 10111155
12:00+9ссз5105686 0.1 10131804
15:00+12сз6940100 0.1 10152476
18:00+11сз484753 0.0 10182321
21:00+5зсз310700 0.0 1021180
10 мая, пн
пн1000:00+3зсз26760 0.0 102499
03:00+2сз12765 0.0 102711
06:00+3юз22735 0.0 102864
09:00+10юз245156 0.0 1029475
12:00+14юз35395 0.0 10281763
15:00+16зюз344058 0.0 10281727
18:00+14зюз23576 0.0 1028500
21:00+9ююз22745 0.0 103012
11 мая, вт
вт1100:00+7ююз22795 0.0 103010
03:00+6ю11825 0.0 103110
06:00+7ююв23781 0.0 103277
09:00+14ююв23535 0.0 1032513
12:00+17юв344412 0.0 10311199
15:00+19вюв33435 0.0 10291389
18:00+18вюв345592 0.0 1029798
21:00+11вюв377796 0.0 1029129
12 мая, ср
ср1200:00+9вюв22825 0.0 102938
03:00+7вюв24840 0.0 102968
06:00+8в26810 0.0 1029166
09:00+15в4755100 0.0 1027543
12:00+20в57490 0.0 10261057
15:00+22вюв575058 0.0 10251535
18:00+20вюв47616 0.0 10241303
21:00+14всв399038 0.0 1024203